Вернуться в каталог

ATLAS 5 CENTAUR DEB

LostHEO
NORAD 46603·DEBRIS·🇺🇸 United States

Запущен Oct 17, 2018 с Cape Canaveral Space Force Station

Loading…

Ближайшие Пролёты (ближайшие 24 часа)

TLE

УстаревшееSource: Space-Track

Эпоха: Aug 10, 2023, 01:08 UTC

1 46603U 18079CB  23222.04730284 -.00000051  00000-0  00000+0 0  9999
2 46603  11.2931 126.8393 4671449 117.6650 296.8190  1.75099922 20855

Отслеживайте ATLAS 5 CENTAUR DEB в реальном времени с AllMySat

Download on the App Store